Location: Aula-Vintri
(58.3875°N, 22.4322°E)
Time: 09:24:09
(UTC+00:00)

Cosmos 1408 Rocket - Pass Details

Date: 13 October 2019
Orbit: 600 x 631 km, 82.6° (Epoch: 11 November)

Event Time Altitude Azimuth Distance (km) Brightness Sun altitude
Rises 18:19:08 0° 349° (N) 2,872 7.5 -22.4°
Reaches altitude 10° 18:21:28 10° 356° (N) 1,962 6.4 -22.7°
Enters shadow 18:24:33 36° 32° (NNE) 969 4.4 -23.1°
